Year,Month,Day,Hour,Minute,Value (Times are PST for temperature in C)
2019,05,27,00,00,17.00
2019,05,27,00,01,17.00
2019,05,27,00,02,17.00
2019,05,27,00,03,16.90
2019,05,27,00,04,16.90
2019,05,27,00,05,16.90
2019,05,27,00,06,16.90
2019,05,27,00,07,16.90
2019,05,27,00,08,16.90
2019,05,27,00,09,16.90
2019,05,27,00,10,16.90
2019,05,27,00,11,16.80
2019,05,27,00,12,16.80
2019,05,27,00,13,16.80
2019,05,27,00,14,16.80
2019,05,27,00,15,16.80
2019,05,27,00,16,16.80
2019,05,27,00,17,16.80
2019,05,27,00,18,16.80
2019,05,27,00,19,16.70
2019,05,27,00,20,16.70
2019,05,27,00,21,16.70
2019,05,27,00,22,16.70
2019,05,27,00,23,16.70
2019,05,27,00,24,16.70
2019,05,27,00,25,16.60
2019,05,27,00,26,16.60
2019,05,27,00,27,16.60
2019,05,27,00,28,16.60
2019,05,27,00,29,16.60
2019,05,27,00,30,16.60
2019,05,27,00,31,16.50
2019,05,27,00,32,16.50
2019,05,27,00,33,16.50
2019,05,27,00,34,16.40
2019,05,27,00,35,16.40
2019,05,27,00,36,16.40
2019,05,27,00,37,16.40
2019,05,27,00,38,16.40
2019,05,27,00,39,16.40
2019,05,27,00,40,16.30
2019,05,27,00,41,16.30
2019,05,27,00,42,16.30
2019,05,27,00,43,16.30
2019,05,27,00,44,16.30
2019,05,27,00,45,16.20
2019,05,27,00,46,16.20
2019,05,27,00,47,16.20
2019,05,27,00,48,16.20
2019,05,27,00,49,16.20
2019,05,27,00,50,16.20
2019,05,27,00,51,16.10
2019,05,27,00,52,16.10
2019,05,27,00,53,16.10
2019,05,27,00,54,16.10
2019,05,27,00,55,16.10
2019,05,27,00,56,16.00
2019,05,27,00,57,16.00
2019,05,27,00,58,16.00
2019,05,27,00,59,15.90
2019,05,27,01,00,15.90
2019,05,27,01,01,15.90
2019,05,27,01,02,15.90
2019,05,27,01,03,15.90
2019,05,27,01,04,15.90
2019,05,27,01,05,15.90
2019,05,27,01,06,15.90
2019,05,27,01,07,15.90
2019,05,27,01,08,15.80
2019,05,27,01,09,15.80
2019,05,27,01,10,15.80
2019,05,27,01,11,15.80
2019,05,27,01,12,15.80
2019,05,27,01,13,15.80
2019,05,27,01,14,15.70
2019,05,27,01,15,15.70
2019,05,27,01,16,15.70
2019,05,27,01,17,15.70
2019,05,27,01,18,15.70
2019,05,27,01,19,15.70
2019,05,27,01,20,15.70
2019,05,27,01,21,15.70
2019,05,27,01,22,15.70
2019,05,27,01,23,15.70
2019,05,27,01,24,15.70
2019,05,27,01,25,15.70
2019,05,27,01,26,15.70
2019,05,27,01,27,15.70
2019,05,27,01,28,15.70
2019,05,27,01,29,15.70
2019,05,27,01,30,15.70
2019,05,27,01,31,15.60
2019,05,27,01,32,15.60
2019,05,27,01,33,15.60
2019,05,27,01,34,15.60
2019,05,27,01,35,15.60
2019,05,27,01,36,15.60
2019,05,27,01,37,15.60
2019,05,27,01,38,15.60
2019,05,27,01,39,15.50
2019,05,27,01,40,15.50
2019,05,27,01,41,15.50
2019,05,27,01,42,15.50
2019,05,27,01,43,15.50
2019,05,27,01,44,15.40
2019,05,27,01,45,15.40
2019,05,27,01,46,15.40
2019,05,27,01,47,15.40
2019,05,27,01,48,15.40
2019,05,27,01,49,15.40
2019,05,27,01,50,15.40
2019,05,27,01,51,15.40
2019,05,27,01,52,15.30
2019,05,27,01,53,15.30
2019,05,27,01,54,15.30
2019,05,27,01,55,15.30
2019,05,27,01,56,15.30
2019,05,27,01,57,15.30
2019,05,27,01,58,15.30
2019,05,27,01,59,15.30
2019,05,27,02,00,15.30
2019,05,27,02,01,15.30
2019,05,27,02,02,15.30
2019,05,27,02,03,15.30
2019,05,27,02,04,15.20
2019,05,27,02,05,15.20
2019,05,27,02,06,15.20
2019,05,27,02,07,15.20
2019,05,27,02,08,15.20
2019,05,27,02,09,15.20
2019,05,27,02,10,15.20
2019,05,27,02,11,15.20
2019,05,27,02,12,15.10
2019,05,27,02,13,15.10
2019,05,27,02,14,15.10
2019,05,27,02,15,15.10
2019,05,27,02,16,15.10
2019,05,27,02,17,15.10
2019,05,27,02,18,15.10
2019,05,27,02,19,15.10
2019,05,27,02,20,15.10
2019,05,27,02,21,15.00
2019,05,27,02,22,15.00
2019,05,27,02,23,15.00
2019,05,27,02,24,15.00
2019,05,27,02,25,15.00
2019,05,27,02,26,15.00
2019,05,27,02,27,15.00
2019,05,27,02,28,15.00
2019,05,27,02,29,15.00
2019,05,27,02,30,14.90
2019,05,27,02,31,14.90
2019,05,27,02,32,14.90
2019,05,27,02,33,14.90
2019,05,27,02,34,14.90
2019,05,27,02,35,14.90
2019,05,27,02,36,14.90
2019,05,27,02,37,14.90
2019,05,27,02,38,14.80
2019,05,27,02,39,14.80
2019,05,27,02,40,14.80
2019,05,27,02,41,14.80
2019,05,27,02,42,14.80
2019,05,27,02,43,14.80
2019,05,27,02,44,14.80
2019,05,27,02,45,14.80
2019,05,27,02,46,14.80
2019,05,27,02,47,14.80
2019,05,27,02,48,14.70
2019,05,27,02,49,14.70
2019,05,27,02,50,14.70
2019,05,27,02,51,14.70
2019,05,27,02,52,14.70
2019,05,27,02,53,14.70
2019,05,27,02,54,14.70
2019,05,27,02,55,14.70
2019,05,27,02,56,14.70
2019,05,27,02,57,14.70
2019,05,27,02,58,14.70
2019,05,27,02,59,14.70
2019,05,27,03,00,14.80
2019,05,27,03,01,14.80
2019,05,27,03,02,14.80
2019,05,27,03,03,14.80
2019,05,27,03,04,14.80
2019,05,27,03,05,14.80
2019,05,27,03,06,14.80
2019,05,27,03,07,14.80
2019,05,27,03,08,14.80
2019,05,27,03,09,14.80
2019,05,27,03,10,14.80
2019,05,27,03,11,14.80
2019,05,27,03,12,14.80
2019,05,27,03,13,14.80
2019,05,27,03,14,14.80
2019,05,27,03,15,14.80
2019,05,27,03,16,14.80
2019,05,27,03,17,14.80
2019,05,27,03,18,14.80
2019,05,27,03,19,14.80
2019,05,27,03,20,14.80
2019,05,27,03,21,14.80
2019,05,27,03,22,14.80
2019,05,27,03,23,14.80
2019,05,27,03,24,14.80
2019,05,27,03,25,14.80
2019,05,27,03,26,14.80
2019,05,27,03,27,14.80
2019,05,27,03,28,14.80
2019,05,27,03,29,14.70
2019,05,27,03,30,14.70
2019,05,27,03,31,14.70
2019,05,27,03,32,14.70
2019,05,27,03,33,14.70
2019,05,27,03,34,14.70
2019,05,27,03,35,14.60
2019,05,27,03,36,14.60
2019,05,27,03,37,14.60
2019,05,27,03,38,14.50
2019,05,27,03,39,14.50
2019,05,27,03,40,14.50
2019,05,27,03,41,14.40
2019,05,27,03,42,14.40
2019,05,27,03,43,14.40
2019,05,27,03,44,14.40
2019,05,27,03,45,14.40
2019,05,27,03,46,14.30
2019,05,27,03,47,14.30
2019,05,27,03,48,14.30
2019,05,27,03,49,14.30
2019,05,27,03,50,14.20
2019,05,27,03,51,14.20
2019,05,27,03,52,14.20
2019,05,27,03,53,14.20
2019,05,27,03,54,14.10
2019,05,27,03,55,14.10
2019,05,27,03,56,14.10
2019,05,27,03,57,14.10
2019,05,27,03,58,14.10
2019,05,27,03,59,14.10
2019,05,27,04,00,14.10
2019,05,27,04,01,14.10
2019,05,27,04,02,14.10
2019,05,27,04,03,14.10
2019,05,27,04,04,14.10
2019,05,27,04,05,14.10
2019,05,27,04,06,14.10
2019,05,27,04,07,14.10
2019,05,27,04,08,14.10
2019,05,27,04,09,14.10
2019,05,27,04,10,14.10
2019,05,27,04,11,14.00
2019,05,27,04,12,14.00
2019,05,27,04,13,14.00
2019,05,27,04,14,14.00
2019,05,27,04,15,14.00
2019,05,27,04,16,14.00
2019,05,27,04,17,14.00
2019,05,27,04,18,14.00
2019,05,27,04,19,14.00
2019,05,27,04,20,14.00
2019,05,27,04,21,13.90
2019,05,27,04,22,13.90
2019,05,27,04,23,13.90
2019,05,27,04,24,13.80
2019,05,27,04,25,13.80
2019,05,27,04,26,13.80
2019,05,27,04,27,13.80
2019,05,27,04,28,13.80
2019,05,27,04,29,13.70
2019,05,27,04,30,13.70
2019,05,27,04,31,13.70
2019,05,27,04,32,13.70
2019,05,27,04,33,13.70
2019,05,27,04,34,13.60
2019,05,27,04,35,13.60
2019,05,27,04,36,13.60
2019,05,27,04,37,13.60
2019,05,27,04,38,13.60
2019,05,27,04,39,13.50
2019,05,27,04,40,13.50
2019,05,27,04,41,13.50
2019,05,27,04,42,13.50
2019,05,27,04,43,13.40
2019,05,27,04,44,13.40
2019,05,27,04,45,13.40
2019,05,27,04,46,13.40
2019,05,27,04,47,13.30
2019,05,27,04,48,13.30
2019,05,27,04,49,13.30
2019,05,27,04,50,13.30
2019,05,27,04,51,13.30
2019,05,27,04,52,13.30
2019,05,27,04,53,13.30
2019,05,27,04,54,13.20
2019,05,27,04,55,13.20
2019,05,27,04,56,13.20
2019,05,27,04,57,13.20
2019,05,27,04,58,13.20
2019,05,27,04,59,13.20
2019,05,27,05,00,13.20
2019,05,27,05,01,13.20
2019,05,27,05,02,13.20
2019,05,27,05,03,13.20
2019,05,27,05,04,13.20
2019,05,27,05,05,13.20
2019,05,27,05,06,13.20
2019,05,27,05,07,13.20
2019,05,27,05,08,13.10
2019,05,27,05,09,13.10
2019,05,27,05,10,13.10
2019,05,27,05,11,13.10
2019,05,27,05,12,13.10
2019,05,27,05,13,13.10
2019,05,27,05,14,13.10
2019,05,27,05,15,13.10
2019,05,27,05,16,13.10
2019,05,27,05,17,13.10
2019,05,27,05,18,13.10
2019,05,27,05,19,13.10
2019,05,27,05,20,13.10
2019,05,27,05,21,13.10
2019,05,27,05,22,13.10
2019,05,27,05,23,13.10
2019,05,27,05,24,13.10
2019,05,27,05,25,13.10
2019,05,27,05,26,13.10
2019,05,27,05,27,13.10
2019,05,27,05,28,13.00
2019,05,27,05,29,13.00
2019,05,27,05,30,13.00
2019,05,27,05,31,13.00
2019,05,27,05,32,13.00
2019,05,27,05,33,13.00
2019,05,27,05,34,12.90
2019,05,27,05,35,12.90
2019,05,27,05,36,12.90
2019,05,27,05,37,12.90
2019,05,27,05,38,12.90
2019,05,27,05,39,12.90
2019,05,27,05,40,12.90
2019,05,27,05,41,12.80
2019,05,27,05,42,12.80
2019,05,27,05,43,12.80
2019,05,27,05,44,12.80
2019,05,27,05,45,12.80
2019,05,27,05,46,12.80
2019,05,27,05,47,12.80
2019,05,27,05,48,12.80
2019,05,27,05,49,12.80
2019,05,27,05,50,12.80
2019,05,27,05,51,12.80
2019,05,27,05,52,12.80
2019,05,27,05,53,12.80
2019,05,27,05,54,12.80
2019,05,27,05,55,12.80
2019,05,27,05,56,12.80
2019,05,27,05,57,12.80
2019,05,27,05,58,12.80
2019,05,27,05,59,12.80
2019,05,27,06,00,12.70
2019,05,27,06,01,12.70
2019,05,27,06,02,12.70
2019,05,27,06,03,12.70
2019,05,27,06,04,12.70
2019,05,27,06,05,12.70
2019,05,27,06,06,12.70
2019,05,27,06,07,12.70
2019,05,27,06,08,12.70
2019,05,27,06,09,12.70
2019,05,27,06,10,12.70
2019,05,27,06,11,12.70
2019,05,27,06,12,12.70
2019,05,27,06,13,12.70
2019,05,27,06,14,12.70
2019,05,27,06,15,12.70
2019,05,27,06,16,12.70
2019,05,27,06,17,12.70
2019,05,27,06,18,12.70
2019,05,27,06,19,12.70
2019,05,27,06,20,12.70
2019,05,27,06,21,12.70
2019,05,27,06,22,12.70
2019,05,27,06,23,12.70
2019,05,27,06,24,12.70
2019,05,27,06,25,12.70
2019,05,27,06,26,12.70
2019,05,27,06,27,12.70
2019,05,27,06,28,12.70
2019,05,27,06,29,12.70
2019,05,27,06,30,12.70
2019,05,27,06,31,12.70
2019,05,27,06,32,12.70
2019,05,27,06,33,12.70
2019,05,27,06,34,12.70
2019,05,27,06,35,12.70
2019,05,27,06,36,12.70
2019,05,27,06,37,12.70
2019,05,27,06,38,12.80
2019,05,27,06,39,12.80
2019,05,27,06,40,12.80
2019,05,27,06,41,12.80
2019,05,27,06,42,12.80
2019,05,27,06,43,12.80
2019,05,27,06,44,12.80
2019,05,27,06,45,12.90
2019,05,27,06,46,12.90
2019,05,27,06,47,12.90
2019,05,27,06,48,13.00
2019,05,27,06,49,13.00
2019,05,27,06,50,13.10
2019,05,27,06,51,13.10
2019,05,27,06,52,13.20
2019,05,27,06,53,13.30
2019,05,27,06,54,13.30
2019,05,27,06,55,13.40
2019,05,27,06,56,13.50
2019,05,27,06,57,13.50
2019,05,27,06,58,13.60
2019,05,27,06,59,13.70
2019,05,27,07,00,13.80
2019,05,27,07,01,13.80
2019,05,27,07,02,13.90
2019,05,27,07,03,13.90
2019,05,27,07,04,14.00
2019,05,27,07,05,14.00
2019,05,27,07,06,14.00
2019,05,27,07,07,14.00
2019,05,27,07,08,14.10
2019,05,27,07,09,14.10
2019,05,27,07,10,14.10
2019,05,27,07,11,14.10
2019,05,27,07,12,14.20
2019,05,27,07,13,14.20
2019,05,27,07,14,14.30
2019,05,27,07,15,14.30
2019,05,27,07,16,14.40
2019,05,27,07,17,14.40
2019,05,27,07,18,14.40
2019,05,27,07,19,14.50
2019,05,27,07,20,14.50
2019,05,27,07,21,14.60
2019,05,27,07,22,14.60
2019,05,27,07,23,14.60
2019,05,27,07,24,14.70
2019,05,27,07,25,14.70
2019,05,27,07,26,14.80
2019,05,27,07,27,14.80
2019,05,27,07,28,14.80
2019,05,27,07,29,14.90
2019,05,27,07,30,14.90
2019,05,27,07,31,15.00
2019,05,27,07,32,15.00
2019,05,27,07,33,15.00
2019,05,27,07,34,15.10
2019,05,27,07,35,15.10
2019,05,27,07,36,15.10
2019,05,27,07,37,15.10
2019,05,27,07,38,15.20
2019,05,27,07,39,15.20
2019,05,27,07,40,15.30
2019,05,27,07,41,15.30
2019,05,27,07,42,15.30
2019,05,27,07,43,15.40
2019,05,27,07,44,15.40
2019,05,27,07,45,15.40
2019,05,27,07,46,15.50
2019,05,27,07,47,15.50
2019,05,27,07,48,15.60
2019,05,27,07,49,15.60
2019,05,27,07,50,15.70
2019,05,27,07,51,15.70
2019,05,27,07,52,15.80
2019,05,27,07,53,15.80
2019,05,27,07,54,15.90
2019,05,27,07,55,15.90
2019,05,27,07,56,16.00
2019,05,27,07,57,16.10
2019,05,27,07,58,16.10
2019,05,27,07,59,16.20
2019,05,27,08,00,16.20
2019,05,27,08,01,16.30
2019,05,27,08,02,16.30
2019,05,27,08,03,16.30
2019,05,27,08,04,16.40
2019,05,27,08,05,16.40
2019,05,27,08,06,16.50
2019,05,27,08,07,16.50
2019,05,27,08,08,16.60
2019,05,27,08,09,16.60
2019,05,27,08,10,16.60
2019,05,27,08,11,16.60
2019,05,27,08,12,16.60
2019,05,27,08,13,16.70
2019,05,27,08,14,16.70
2019,05,27,08,15,16.70
2019,05,27,08,16,16.70
2019,05,27,08,17,16.80
2019,05,27,08,18,16.80
2019,05,27,08,19,16.80
2019,05,27,08,20,16.80
2019,05,27,08,21,16.90
2019,05,27,08,22,16.90
2019,05,27,08,23,17.00
2019,05,27,08,24,17.00
2019,05,27,08,25,17.10
2019,05,27,08,26,17.10
2019,05,27,08,27,17.20
2019,05,27,08,28,17.20
2019,05,27,08,29,17.30
2019,05,27,08,30,17.30
2019,05,27,08,31,17.40
2019,05,27,08,32,17.50
2019,05,27,08,33,17.60
2019,05,27,08,34,17.60
2019,05,27,08,35,17.70
2019,05,27,08,36,17.70
2019,05,27,08,37,17.70
2019,05,27,08,38,17.80
2019,05,27,08,39,17.80
2019,05,27,08,40,17.80
2019,05,27,08,41,17.80
2019,05,27,08,42,17.80
2019,05,27,08,43,17.80
2019,05,27,08,44,17.80
2019,05,27,08,45,17.80
2019,05,27,08,46,17.80
2019,05,27,08,47,17.80
2019,05,27,08,48,17.80
2019,05,27,08,49,17.80
2019,05,27,08,50,17.80
2019,05,27,08,51,17.90
2019,05,27,08,52,17.90
2019,05,27,08,53,17.90
2019,05,27,08,54,17.90
2019,05,27,08,55,17.90
2019,05,27,08,56,17.90
2019,05,27,08,57,18.00
2019,05,27,08,58,18.00
2019,05,27,08,59,18.00
2019,05,27,09,00,18.00
2019,05,27,09,01,18.10
2019,05,27,09,02,18.10
2019,05,27,09,03,18.20
2019,05,27,09,04,18.20
2019,05,27,09,05,18.30
2019,05,27,09,06,18.30
2019,05,27,09,07,18.30
2019,05,27,09,08,18.30
2019,05,27,09,09,18.30
2019,05,27,09,10,18.40
2019,05,27,09,11,18.40
2019,05,27,09,12,18.50
2019,05,27,09,13,18.70
2019,05,27,09,14,18.80
2019,05,27,09,15,19.00
2019,05,27,09,16,19.10
2019,05,27,09,17,19.20
2019,05,27,09,18,19.30
2019,05,27,09,19,19.30
2019,05,27,09,20,19.30
2019,05,27,09,21,19.30
2019,05,27,09,22,19.30
2019,05,27,09,23,19.30
2019,05,27,09,24,19.40
2019,05,27,09,25,19.40
2019,05,27,09,26,19.50
2019,05,27,09,27,19.50
2019,05,27,09,28,19.60
2019,05,27,09,29,19.70
2019,05,27,09,30,19.70
2019,05,27,09,31,19.80
2019,05,27,09,32,20.00
2019,05,27,09,33,20.10
2019,05,27,09,34,20.10
2019,05,27,09,35,20.20
2019,05,27,09,36,20.20
2019,05,27,09,37,20.20
2019,05,27,09,38,20.20
2019,05,27,09,39,20.20
2019,05,27,09,40,20.20
2019,05,27,09,41,20.20
2019,05,27,09,42,20.20
2019,05,27,09,43,20.30
2019,05,27,09,44,20.30
2019,05,27,09,45,20.30
2019,05,27,09,46,20.30
2019,05,27,09,47,20.40
2019,05,27,09,48,20.40
2019,05,27,09,49,20.40
2019,05,27,09,50,20.50
2019,05,27,09,51,20.50
2019,05,27,09,52,20.50
2019,05,27,09,53,20.50
2019,05,27,09,54,20.40
2019,05,27,09,55,20.40
2019,05,27,09,56,20.50
2019,05,27,09,57,20.60
2019,05,27,09,58,20.60
2019,05,27,09,59,20.70
2019,05,27,10,00,20.70
2019,05,27,10,01,20.80
2019,05,27,10,02,20.80
2019,05,27,10,03,20.80
2019,05,27,10,04,20.80
2019,05,27,10,05,20.80
2019,05,27,10,06,20.90
2019,05,27,10,07,20.90
2019,05,27,10,08,21.00
2019,05,27,10,09,21.10
2019,05,27,10,10,21.20
2019,05,27,10,11,21.20
2019,05,27,10,12,21.30
2019,05,27,10,13,21.40
2019,05,27,10,14,21.50
2019,05,27,10,15,21.50
2019,05,27,10,16,21.50
2019,05,27,10,17,21.50
2019,05,27,10,18,21.60
2019,05,27,10,19,21.60
2019,05,27,10,20,21.70
2019,05,27,10,21,21.80
2019,05,27,10,22,21.80
2019,05,27,10,23,21.80
2019,05,27,10,24,21.80
2019,05,27,10,25,21.90
2019,05,27,10,26,22.00
2019,05,27,10,27,22.10
2019,05,27,10,28,22.20
2019,05,27,10,29,22.20
2019,05,27,10,30,22.20
2019,05,27,10,31,22.20
2019,05,27,10,32,22.20
2019,05,27,10,33,22.30
2019,05,27,10,34,22.30
2019,05,27,10,35,22.30
2019,05,27,10,36,22.30
2019,05,27,10,37,22.30
2019,05,27,10,38,22.30
2019,05,27,10,39,22.30
2019,05,27,10,40,22.30
2019,05,27,10,41,22.40
2019,05,27,10,42,22.50
2019,05,27,10,43,22.50
2019,05,27,10,44,22.50
2019,05,27,10,45,22.50
2019,05,27,10,46,22.60
2019,05,27,10,47,22.60
2019,05,27,10,48,22.70
2019,05,27,10,49,22.70
2019,05,27,10,50,22.80
2019,05,27,10,51,22.80
2019,05,27,10,52,22.90
2019,05,27,10,53,23.00
2019,05,27,10,54,23.00
2019,05,27,10,55,23.10
2019,05,27,10,56,23.20
2019,05,27,10,57,23.30
2019,05,27,10,58,23.30
2019,05,27,10,59,23.30
2019,05,27,11,00,23.30
2019,05,27,11,01,23.40
2019,05,27,11,02,23.40
2019,05,27,11,03,23.60
2019,05,27,11,04,23.60
2019,05,27,11,05,23.70
2019,05,27,11,06,23.80
2019,05,27,11,07,23.80
2019,05,27,11,08,23.80
2019,05,27,11,09,23.80
2019,05,27,11,10,23.80
2019,05,27,11,11,23.90
2019,05,27,11,12,24.00
2019,05,27,11,13,24.10
2019,05,27,11,14,24.20
2019,05,27,11,15,24.30
2019,05,27,11,16,24.50
2019,05,27,11,17,24.50
2019,05,27,11,18,24.60
2019,05,27,11,19,24.50
2019,05,27,11,20,24.50
2019,05,27,11,21,24.50
2019,05,27,11,22,24.50
2019,05,27,11,23,24.50
2019,05,27,11,24,24.50
2019,05,27,11,25,24.60
2019,05,27,11,26,24.60
2019,05,27,11,27,24.70
2019,05,27,11,28,24.70
2019,05,27,11,29,24.80
2019,05,27,11,30,24.90
2019,05,27,11,31,25.00
2019,05,27,11,32,25.00
2019,05,27,11,33,25.00
2019,05,27,11,34,24.90
2019,05,27,11,35,24.90
2019,05,27,11,36,24.80
2019,05,27,11,37,24.80
2019,05,27,11,38,24.70
2019,05,27,11,39,24.70
2019,05,27,11,40,24.70
2019,05,27,11,41,24.70
2019,05,27,11,42,24.70
2019,05,27,11,43,24.70
2019,05,27,11,44,24.80
2019,05,27,11,45,24.90
2019,05,27,11,46,24.90
2019,05,27,11,47,25.00
2019,05,27,11,48,25.10
2019,05,27,11,49,25.20
2019,05,27,11,50,25.30
2019,05,27,11,51,25.40
2019,05,27,11,52,25.40
2019,05,27,11,53,25.50
2019,05,27,11,54,25.50
2019,05,27,11,55,25.60
2019,05,27,11,56,25.70
2019,05,27,11,57,25.70
2019,05,27,11,58,25.80
2019,05,27,11,59,25.90
2019,05,27,12,00,25.90
2019,05,27,12,01,26.10
2019,05,27,12,02,26.20
2019,05,27,12,03,26.20
2019,05,27,12,04,26.20
2019,05,27,12,05,26.20
2019,05,27,12,06,26.20
2019,05,27,12,07,26.20
2019,05,27,12,08,26.20
2019,05,27,12,09,26.20
2019,05,27,12,10,26.20
2019,05,27,12,11,26.20
2019,05,27,12,12,26.30
2019,05,27,12,13,26.40
2019,05,27,12,14,26.50
2019,05,27,12,15,26.60
2019,05,27,12,16,26.70
2019,05,27,12,17,26.70
2019,05,27,12,18,26.60
2019,05,27,12,19,26.60
2019,05,27,12,20,26.60
2019,05,27,12,21,26.60
2019,05,27,12,22,26.60
2019,05,27,12,23,26.50
2019,05,27,12,24,26.50
2019,05,27,12,25,26.40
2019,05,27,12,26,26.40
2019,05,27,12,27,26.40
2019,05,27,12,28,26.40
2019,05,27,12,29,26.40
2019,05,27,12,30,26.50
2019,05,27,12,31,26.50
2019,05,27,12,32,26.50
2019,05,27,12,33,26.50
2019,05,27,12,34,26.50
2019,05,27,12,35,26.40
2019,05,27,12,36,26.40
2019,05,27,12,37,26.40
2019,05,27,12,38,26.50
2019,05,27,12,39,26.50
2019,05,27,12,40,26.60
2019,05,27,12,41,26.70
2019,05,27,12,42,26.80
2019,05,27,12,43,27.00
2019,05,27,12,44,27.20
2019,05,27,12,45,27.30
2019,05,27,12,46,27.20
2019,05,27,12,47,27.20
2019,05,27,12,48,27.10
2019,05,27,12,49,27.00
2019,05,27,12,50,26.90
2019,05,27,12,51,26.90
2019,05,27,12,52,26.90
2019,05,27,12,53,26.90
2019,05,27,12,54,26.90
2019,05,27,12,55,26.90
2019,05,27,12,56,26.90
2019,05,27,12,57,26.90
2019,05,27,12,58,27.00
2019,05,27,12,59,27.00
2019,05,27,13,00,27.10
2019,05,27,13,01,27.10
2019,05,27,13,02,27.10
2019,05,27,13,03,27.10
2019,05,27,13,04,27.20
2019,05,27,13,05,27.20
2019,05,27,13,06,27.30
2019,05,27,13,07,27.30
2019,05,27,13,08,27.40
2019,05,27,13,09,27.50
2019,05,27,13,10,27.60
2019,05,27,13,11,27.60
2019,05,27,13,12,27.60
2019,05,27,13,13,27.70
2019,05,27,13,14,27.70
2019,05,27,13,15,27.80
2019,05,27,13,16,27.80
2019,05,27,13,17,27.90
2019,05,27,13,18,28.00
2019,05,27,13,19,28.10
2019,05,27,13,20,28.20
2019,05,27,13,21,28.20
2019,05,27,13,22,28.20
2019,05,27,13,23,28.20
2019,05,27,13,24,28.20
2019,05,27,13,25,28.30
2019,05,27,13,26,28.30
2019,05,27,13,27,28.30
2019,05,27,13,28,28.30
2019,05,27,13,29,28.40
2019,05,27,13,30,28.40
2019,05,27,13,31,28.50
2019,05,27,13,32,28.50
2019,05,27,13,33,28.60
2019,05,27,13,34,28.60
2019,05,27,13,35,28.60
2019,05,27,13,36,28.70
2019,05,27,13,37,28.70
2019,05,27,13,38,28.70
2019,05,27,13,39,28.70
2019,05,27,13,40,28.70
2019,05,27,13,41,28.60
2019,05,27,13,42,28.50
2019,05,27,13,43,28.40
2019,05,27,13,44,28.30
2019,05,27,13,45,28.20
2019,05,27,13,46,28.00
2019,05,27,13,47,27.90
2019,05,27,13,48,27.80
2019,05,27,13,49,27.80
2019,05,27,13,50,27.70
2019,05,27,13,51,27.70
2019,05,27,13,52,27.80
2019,05,27,13,53,27.80
2019,05,27,13,54,27.80
2019,05,27,13,55,27.80
2019,05,27,13,56,27.80
2019,05,27,13,57,27.80
2019,05,27,13,58,27.80
2019,05,27,13,59,27.70
2019,05,27,14,00,27.60
2019,05,27,14,01,27.60
2019,05,27,14,02,27.60
2019,05,27,14,03,27.50
2019,05,27,14,04,27.50
2019,05,27,14,05,27.50
2019,05,27,14,06,27.40
2019,05,27,14,07,27.40
2019,05,27,14,08,27.50
2019,05,27,14,09,27.60
2019,05,27,14,10,27.60
2019,05,27,14,11,27.50
2019,05,27,14,12,27.50
2019,05,27,14,13,27.50
2019,05,27,14,14,27.50
2019,05,27,14,15,27.40
2019,05,27,14,16,27.40
2019,05,27,14,17,27.40
2019,05,27,14,18,27.50
2019,05,27,14,19,27.70
2019,05,27,14,20,27.80
2019,05,27,14,21,27.90
2019,05,27,14,22,27.90
2019,05,27,14,23,27.90
2019,05,27,14,24,27.80
2019,05,27,14,25,27.80
2019,05,27,14,26,27.90
2019,05,27,14,27,27.90
2019,05,27,14,28,28.00
2019,05,27,14,29,28.10
2019,05,27,14,30,28.10
2019,05,27,14,31,28.10
2019,05,27,14,32,28.10
2019,05,27,14,33,28.10
2019,05,27,14,34,28.10
2019,05,27,14,35,28.10
2019,05,27,14,36,28.20
2019,05,27,14,37,28.10
2019,05,27,14,38,28.10
2019,05,27,14,39,28.10
2019,05,27,14,40,28.10
2019,05,27,14,41,28.20
2019,05,27,14,42,28.30
2019,05,27,14,43,28.30
2019,05,27,14,44,28.30
2019,05,27,14,45,28.30
2019,05,27,14,46,28.40
2019,05,27,14,47,28.40
2019,05,27,14,48,28.50
2019,05,27,14,49,28.60
2019,05,27,14,50,28.60
2019,05,27,14,51,28.70
2019,05,27,14,52,28.70
2019,05,27,14,53,28.60
2019,05,27,14,54,28.50
2019,05,27,14,55,28.40
2019,05,27,14,56,28.40
2019,05,27,14,57,28.50
2019,05,27,14,58,28.60
2019,05,27,14,59,28.60
2019,05,27,15,00,28.60
2019,05,27,15,01,28.60
2019,05,27,15,02,28.60
2019,05,27,15,03,28.60
2019,05,27,15,04,28.60
2019,05,27,15,05,28.60
2019,05,27,15,06,28.60
2019,05,27,15,07,28.70
2019,05,27,15,08,28.60
2019,05,27,15,09,28.60
2019,05,27,15,10,28.60
2019,05,27,15,11,28.60
2019,05,27,15,12,28.60
2019,05,27,15,13,28.60
2019,05,27,15,14,28.60
2019,05,27,15,15,28.60
2019,05,27,15,16,28.60
2019,05,27,15,17,28.60
2019,05,27,15,18,28.60
2019,05,27,15,19,28.60
2019,05,27,15,20,28.70
2019,05,27,15,21,28.80
2019,05,27,15,22,28.80
2019,05,27,15,23,28.90
2019,05,27,15,24,29.00
2019,05,27,15,25,29.10
2019,05,27,15,26,29.20
2019,05,27,15,27,29.20
2019,05,27,15,28,29.20
2019,05,27,15,29,29.30
2019,05,27,15,30,29.30
2019,05,27,15,31,29.30
2019,05,27,15,32,29.40
2019,05,27,15,33,29.50
2019,05,27,15,34,29.50
2019,05,27,15,35,29.60
2019,05,27,15,36,29.60
2019,05,27,15,37,29.60
2019,05,27,15,38,29.50
2019,05,27,15,39,29.40
2019,05,27,15,40,29.30
2019,05,27,15,41,29.30
2019,05,27,15,42,29.20
2019,05,27,15,43,29.10
2019,05,27,15,44,29.00
2019,05,27,15,45,29.00
2019,05,27,15,46,29.00
2019,05,27,15,47,29.00
2019,05,27,15,48,29.10
2019,05,27,15,49,29.20
2019,05,27,15,50,29.10
2019,05,27,15,51,29.10
2019,05,27,15,52,29.10
2019,05,27,15,53,29.10
2019,05,27,15,54,29.10
2019,05,27,15,55,29.20
2019,05,27,15,56,29.30
2019,05,27,15,57,29.30
2019,05,27,15,58,29.30
2019,05,27,15,59,29.30
2019,05,27,16,00,29.30
2019,05,27,16,01,29.20
2019,05,27,16,02,29.10
2019,05,27,16,03,29.00
2019,05,27,16,04,29.00
2019,05,27,16,05,28.90
2019,05,27,16,06,28.80
2019,05,27,16,07,28.70
2019,05,27,16,08,28.50
2019,05,27,16,09,28.40
2019,05,27,16,10,28.50
2019,05,27,16,11,28.60
2019,05,27,16,12,28.60
2019,05,27,16,13,28.60
2019,05,27,16,14,28.50
2019,05,27,16,15,28.50
2019,05,27,16,16,28.40
2019,05,27,16,17,28.40
2019,05,27,16,18,28.40
2019,05,27,16,19,28.30
2019,05,27,16,20,28.20
2019,05,27,16,21,28.10
2019,05,27,16,22,28.00
2019,05,27,16,23,27.90
2019,05,27,16,24,27.90
2019,05,27,16,25,27.90
2019,05,27,16,26,27.90
2019,05,27,16,27,27.90
2019,05,27,16,28,27.80
2019,05,27,16,29,27.80
2019,05,27,16,30,27.80
2019,05,27,16,31,27.70
2019,05,27,16,32,27.80
2019,05,27,16,33,27.80
2019,05,27,16,34,27.90
2019,05,27,16,35,27.90
2019,05,27,16,36,27.90
2019,05,27,16,37,27.90
2019,05,27,16,38,27.90
2019,05,27,16,39,27.90
2019,05,27,16,40,27.90
2019,05,27,16,41,27.90
2019,05,27,16,42,27.90
2019,05,27,16,43,27.90
2019,05,27,16,44,27.90
2019,05,27,16,45,27.90
2019,05,27,16,46,27.90
2019,05,27,16,47,28.00
2019,05,27,16,48,28.10
2019,05,27,16,49,28.10
2019,05,27,16,50,28.10
2019,05,27,16,51,28.10
2019,05,27,16,52,28.00
2019,05,27,16,53,28.00
2019,05,27,16,54,27.90
2019,05,27,16,55,27.90
2019,05,27,16,56,27.90
2019,05,27,16,57,28.00
2019,05,27,16,58,28.00
2019,05,27,16,59,28.10
2019,05,27,17,00,28.10
2019,05,27,17,01,28.10
2019,05,27,17,02,28.10
2019,05,27,17,03,28.10
2019,05,27,17,04,28.10
2019,05,27,17,05,28.10
2019,05,27,17,06,28.00
2019,05,27,17,07,27.90
2019,05,27,17,08,27.90
2019,05,27,17,09,27.90
2019,05,27,17,10,27.90
2019,05,27,17,11,27.90
2019,05,27,17,12,28.00
2019,05,27,17,13,27.90
2019,05,27,17,14,27.90
2019,05,27,17,15,27.70
2019,05,27,17,16,27.60
2019,05,27,17,17,27.50
2019,05,27,17,18,27.50
2019,05,27,17,19,27.50